Regional Weather Roundup
Issued by NWS

Home | Current Version | Previous Version | Graphics & Text | Print | Product List | Glossary On
Versions: 1 2 3 4 5 6 7 8 9 10 11 12 13 14 15 16 17 18 19 20 21 22 23 24 25 26 27 28 29 30 31 32 33 34 35 36 37 38 39 40 41 42 43 44 45 46 47 48 49
000
ASUS43 KDMX 171507
RWRIA

WEATHER ROUNDUP FOR IOWA
NATIONAL WEATHER SERVICE DES MOINES IA
1000 AM CDT WED SEP 17 2014

NOTE: "FAIR" INDICATES FEW OR NO CLOUDS BELOW 12,000 FEET WITH NO
SIGNIFICANT WEATHER AND/OR OBSTRUCTIONS TO VISIBILITY.

* - THESE STATIONS ARE NOT NWS STATIONS...THUS NOT UNDER NWS
QUALITY CONTROL.  THEY ALSO DO NOT REPORT WEATHER SUCH
AS PRECIPITATION OR FOG.

IAZ001>003-012>014-020>022-031>034-043>046-171600-
   NORTHWEST IOWA

CITY           SKY/WX    TMP DP  RH WIND       PRES   REMARKS
CARROLL *      SUNNY     63  55  77 S5        29.95S
CHEROKEE *     SUNNY     61  55  82 CALM      29.95S
DENISON *      SUNNY     64  57  77 VRB5      29.93S
LE MARS *      SUNNY     63  55  77 VRB3      29.94S
ORANGE CITY *  SUNNY     63  54  72 SW7       29.94R
SHELDON *      SUNNY     61  54  77 S6        29.93S
SIOUX CITY     SUNNY     64  55  72 S3        29.93F
SPENCER        SUNNY     61  52  72 CALM      29.95S
STORM LAKE *   SUNNY     61  57  88 CALM      29.95S
$$

IAZ055>058-069>071-079>083-090>094-171600-
   SOUTHWEST IOWA

CITY           SKY/WX    TMP DP  RH WIND       PRES   REMARKS
ATLANTIC *     SUNNY     64  57  77 CALM      29.94S
AUDUBON *      SUNNY     64  55  72 CALM      29.96R
CLARINDA *     CLOUDY    64  59  82 CALM      29.97R
COUNCIL BLFS * SUNNY     64  61  88 SE5       29.93S
CRESTON *      MOSUNNY   66  59  77 SE8       29.96S
HARLAN  *      SUNNY     64  57  77 VRB5      29.98S
LAMONI           N/A     63  59  87 SE5       29.96S
SHENANDOAH *   CLOUDY    66  61  82 SE7       29.95S
$$

IAZ047>049-059>061-072>074-084-171600-
   CENTRAL IOWA

CITY           SKY/WX    TMP DP  RH WIND       PRES   REMARKS
AMES           CLOUDY    59  54  83 VRB5      29.97R
ANKENY *       CLOUDY    61  55  82 SE5       29.97R
CHARITON *     PTSUNNY   63  59  88 S6        29.97R
DES MOINES     PTSUNNY   62  55  77 SE5       29.97R
GRINNELL*      CLOUDY    59  54  82 SE6       29.99S
KNOXVILLE *    CLOUDY    59  55  88 CALM      29.96S
MARSHALLTOWN   CLOUDY    56  52  86 SE6       29.97S
PELLA *        MOSUNNY   59  55  88 SE5       29.99S
PERRY *          N/A     63  55  77 S3        29.97R
$$

IAZ004>006-015-016-023>025-035-036-171600-
   NORTH CENTRAL IOWA

CITY           SKY/WX    TMP DP  RH WIND       PRES   REMARKS
ALGONA *       MOSUNNY   61  54  77 S7        29.97S
CLARION *        N/A     63  52  67 S6        29.97S
ESTHERVILLE    PTSUNNY   56  51  84 S7        29.95S
FORT DODGE *   SUNNY     59  52  77 SE5       29.98R
MASON CITY     SUNNY     61  52  72 S7        29.99S
FOREST CITY *  SUNNY     63  52  67 S8        29.97S
IOWA FALLS *     N/A     63  52  67 SE7       29.99S
$$

IAZ007>011-017>019-026>030-037>042-050>054-066-171600-
   NORTHEAST IOWA

CITY           SKY/WX    TMP DP  RH WIND       PRES   REMARKS
CEDAR RAPIDS   CLOUDY    55  53  93 SE3       30.00R
CHARLES CITY * SUNNY     59  50  72 S6        30.00S
CLINTON *      SUNNY     57  52  82 S6        30.05S
DECORAH *      CLOUDY    57  50  77 VRB3      29.99S
DUBUQUE        CLOUDY    57  49  74 SW3       30.02R
MONTICELLO *   SUNNY     59  50  72 VRB3      30.01S
OELWEIN *      MOSUNNY   61  50  67 S7        30.00S
WATERLOO       PTSUNNY   60  50  69 S5        29.98S
$$

IAZ064-065-067-068-078-171600-
   EAST CENTRAL IOWA

CITY           SKY/WX    TMP DP  RH WIND       PRES   REMARKS
DAVENPORT      CLOUDY    61  51  70 S6        30.02S
IOWA CITY      CLOUDY    55  53  93 SE5       30.02S
MT. PLEASANT * CLOUDY    59  55  88 SE5       30.01S
MUSCATINE *    CLOUDY    57  52  82 SE5       30.02S
QUAD CITIES    CLOUDY    60  52  74 SW3       30.02R
$$

IAZ062-063-075>077-085>089-095>099-171600-
   SOUTHEAST IOWA

CITY           SKY/WX    TMP DP  RH WIND       PRES   REMARKS
BURLINGTON     LGT RAIN  58  54  86 S7        30.01S
FAIRFIELD *    CLOUDY    59  54  82 SE7       30.00R
FORT MADISON * CLOUDY    57  54  88 SE3       30.01S FOG
KEOKUK *       CLOUDY    57  55  94 SE3       30.00S
OSKALOOSA *    CLOUDY    57  55  94 SE5       29.99S
CENTERVILLE *  MOSUNNY   59  59 100 S7        29.99S
OTTUMWA          N/A     59  55  87 MISG      29.98S
WASHINGTON *   CLOUDY    59  57  94 SE6       30.01R
$$

ABBREVIATIONS USED IN REMARKS
   TC - TEMPERATURES IN CELSIUS
  WCI - WIND CHILL INDEX
   HX - HEAT INDEX
  VSB - VISIBILITY
$$




USA.gov is the U.S. government's official web portal to all federal, state and local government web resources and services.